Tracking 26006 objects as of 17-Aug-2022
HD Live streaming from Space Station
objects crossing your sky now

RESURS O1 DEB

Track RESURS O1 DEB now!
10-day predictions


NORAD ID: 48501
Int'l Code: 1994-074EC
Perigee: 599.3 km
Apogee: 602.6 km
Inclination: 97.9 °
Period: 96.6 minutes
Semi major axis: 6971 km
RCS: Unknown
Launch date: November 4, 1994
Source: Commonwealth of Independent States (former USSR) (CIS)
Launch site: TYURATAM MISSILE AND SPACE COMPLEX (TTMTR)

Note: This is SATELLITE DEBRIS
aabbcc
Your satellite tracking list
Your tracking list is empty




NASA's NSSDC Master Catalog

Two Line Element Set (TLE):
1 48501U 94074EC  22228.09105786  .00024534  00000-0  24595-2 0  9999
2 48501  97.8740 277.4665 0002393 181.4053 178.7159 14.91328111 77813
Source of the keplerian elements: AFSPC